Regional Weather Roundup
Issued by NWS

Home | Current Version | Previous Version | Text Only | Print | Product List | Glossary On
Versions: 1 2 3 4 5 6 7 8 9 10 11 12 13 14 15 16 17 18 19 20 21 22 23 24 25 26 27 28 29 30 31 32 33 34 35 36 37 38 39 40 41 42 43 44 45 46 47 48 49 50
000
ASUS43 KMKX 201700
RWRWI

WISCONSIN REGIONAL WEATHER ROUNDUP
NATIONAL WEATHER SERVICE MILWAUKEE/SULLIVAN WI
1100 AM CST THU NOV 20 2014

NOTE: "FAIR" INDICATES FEW OR NO CLOUDS BELOW 12,000 FEET WITH NO
SIGNIFICANT WEATHER AND/OR OBSTRUCTIONS TO VISIBILITY.

WIZ001-002-006>008-014>016-023>028-201800-
NORTHWEST WISCONSIN

CITY           SKY/WX    TMP DP  RH WIND       PRES   REMARKS
SUPERIOR ARPT  MOSUNNY   10  -1  61 NW15      30.05R WCI  -6
ASHLAND        LGT SNOW  11   3  70 W9        30.00R WCI  -2
HAYWARD        PTSUNNY    9  -1  64 VRB6G18   29.99R WCI  -1
SIREN          SUNNY     11  -1  57 NW13G18   30.06R WCI  -4
CUMBERLAND     SUNNY     10  -2  56 NW9       30.02R WCI  -2
RICE LAKE      SUNNY     11  -1  57 W9        30.05R WCI  -1
CHETEK         SUNNY     12  -1  58 W7        30.04R WCI   1
LADYSMITH      PTSUNNY   11   1  64 NW10G17   30.00S WCI  -3
EAU CLAIRE     NOT AVBL
MENOMONIE      SUNNY     14  -1  52 W13G20    30.09R WCI  -1
NEW RICHMOND   SUNNY     12  -3  51 NW14      30.09R WCI  -3
OSCEOLA        SUNNY     13  -2  52 W15G21    30.13R WCI  -3
$$

WIZ003>005-009-010-017-018-201800-
NORTH CENTRAL WISCONSIN

CITY           SKY/WX    TMP DP  RH WIND       PRES   REMARKS
MANITOWISH WTR CLOUDY     9   0  69 W15G21    29.87R HAZE    WCI  -8
ARBOR VITAE    PTSUNNY   11   2  66 W12G20    29.87S WCI  -3
WOODRUFF       PTSUNNY   11   2  66 W12G20    29.87S WCI  -3
RHINELANDER    SUNNY     10  -2  58 W14G25    29.88R WCI  -6
EAGLE RIVER    MOSUNNY   10  -1  60 W16       29.85R WCI  -7
LAND O LAKES   CLOUDY    11   3  70 W12G20    29.84R HAZE    WCI  -3
PHILLIPS       CLOUDY     8  -1  64 W7        29.92S WCI  -3
TOMAHAWK       PTSUNNY   10   0  63 W15       29.92R WCI  -7
MEDFORD        PTSUNNY    9  -1  63 W12G17    29.95R WCI  -5
MERRILL        CLOUDY    10   1  65 NW13G18   29.94R WCI  -5
$$

WIZ029-030-035-036-043>047-201800-
CENTRAL WISCONSIN

CITY           SKY/WX    TMP DP  RH WIND       PRES   REMARKS
WAUSAU         CLOUDY    11   1  64 W15       29.95R WCI  -5
MOSINEE        NOT AVBL
MARSHFIELD     SUNNY     12   0  58 NW18G28   29.98R WCI  -6
STEVENS POINT  CLOUDY    11   0  60 W13G20    29.98S WCI  -4
WAUPACA        SUNNY     19   3  51 W14G21    29.99R WCI   5
WAUTOMA        PTSUNNY   16   3  57 NW16      30.02R WCI   0
WISC RAPIDS    MOSUNNY   13   0  56 NW17G25   30.02R WCI  -4
CAMP DOUGLAS   NOT AVBL
$$

WIZ011>013-019>022-031-037>040-048>050-201800-
NORTHEAST WISCONSIN

CITY           SKY/WX    TMP DP  RH WIND       PRES   REMARKS
ANTIGO         MOSUNNY    9   0  64 W17G23    29.90R WCI  -9
SHAWANO        SUNNY     18   4  53 W15G21    29.96R WCI   4
OCONTO         SUNNY     18   4  56 W12G22    29.93R WCI   5
STURGEON BAY   SUNNY     18   3  53 W16G24    29.90S WCI   3
GREEN BAY      SUNNY     18   4  54 W21G26    29.96R WCI   1
MANITOWOC      NOT AVBL
APPLETON       MOSUNNY   16   1  53 W18G24    29.96R WCI  -1
CLINTONVILLE   SUNNY     18   1  49 W17G24    29.96S WCI   2
OSHKOSH        SUNNY     18   5  57 W16G25    29.98R WCI   3
$$

WIZ032>034-041-042-053>061-201800-
SOUTHWEST WISCONSIN

CITY           SKY/WX    TMP DP  RH WIND       PRES   REMARKS
LA CROSSE      SUNNY     20   2  45 NW14      30.10R WCI   7
SPARTA         SUNNY     18   2  50 W15G21    30.07R WCI   3
VIROQUA        SUNNY     18   2  50 W17G25    30.04S WCI   2
BOSCOBEL       SUNNY     22   3  44 NW18G24   30.11R WCI   7
PRAIRIE DU CHI SUNNY     21   3  47 W14G23    30.13R WCI   8
PLATTEVILLE    SUNNY     20   7  57 W18       30.10R WCI   5
$$

WIZ056-057-062-063-064-067-068-201800-
SOUTH CENTRAL WISCONSIN

CITY           SKY/WX    TMP DP  RH WIND       PRES   REMARKS
REEDSBURG      SUNNY     19   4  53 W10G17    30.04S WCI   7
BARABOO/DELLS  SUNNY     19   4  52 NW14      30.02S WCI   5
LONE ROCK      NOT AVBL
MINERAL POINT  SUNNY     23   3  42 W15G26    30.05R WCI  10
MADISON        MOSUNNY   20   4  50 NW16G24   30.03S WCI   6
MIDDLETON      SUNNY     22   3  44 W16G23    30.04R WCI   8
WATERTOWN      MOSUNNY   19   8  60 W16       30.02R WCI   5
MONROE         SUNNY     21   5  49 W17G30    30.05R WCI   7
JANESVILLE     SUNNY     25   5  42 W17G25    30.05R WCI  11
$$

WIZ051-052-058>065-066-070>072-201800-
SOUTHEAST WISCONSIN

CITY           SKY/WX    TMP DP  RH WIND       PRES   REMARKS
MILWAUKEE      MOSUNNY   21   6  52 W14G28    30.01S WCI   8
WAUKESHA       PTSUNNY   18   7  62 NW12G25   30.01R WCI   5
MILWAUKEE/TIMM MOSUNNY   19   5  53 W20G29    30.01R WCI   4
RACINE         MOSUNNY   21   8  57 W13       30.03R WCI   9
BURLINGTON     SUNNY     20   7  57 NW17G23   30.03R WCI   5
KENOSHA        SUNNY     23   8  52 W18G31    30.02R WCI   9
FOND DU LAC    SUNNY     18   5  57 W16G25    29.99R WCI   3
SHEBOYGAN      CLOUDY    17   7  64 NW14G23   29.97R WCI   3
WEST BEND      MOSUNNY   19   5  53 W17G24    29.98R WCI   4
JUNEAU         PTSUNNY   17   6  60 W9G17     30.02R WCI   6
$$

LSZ147-162-201800-
LAKE SUPERIOR

STATION/POSITION TIME  TEMP    WIND        PRES    WAVE
                       AIR SEA DIR/SP/G            HT/PER
                 (UTC) (F)     (DEG/KT/KT) (MB)    (FT/S)
DEVILS ISLAND    1600   11     300/ 20/ 25 1015.9R
PORT WING        1600   12     310/ 18/ 22 1016.3
SAXON HARBOR     1600   13     280/ 13/ 23 1014.6R
$$

LMZ867-665-643>646-201800-
LAKE MICHIGAN

STATION/POSITION TIME  TEMP    WIND        PRES    WAVE
                       AIR SEA DIR/SP/G            HT/PER
                 (UTC) (F)     (DEG/KT/KT) (MB)    (FT/S)
CHAMBERS ISLAND  1600   21     300/  8/ 15 1011.9S
N MID LAKE BUOY  1550   22 42  310/ 21/ 27 1011.1R   5/ 5
NORTHPORT PIER   1620   19     300/ 14/ 21 1011.9R
SISTER BAY       1528          310/ 24/ 29   N/A
ALGOMA LAKESHORE 1613          310/ 12/ 21   N/A
KEWAUNEE LAKESHO 1600   16     290/ 13/ 25 1012.4R
SHEBOYGAN LAKESH 1600   17 34  300/ 16/ 20 1016.0R
PORT WASHINGTON  1640   19     290/ 13/ 20 1016.3R
ATWATER BUOY     1600   23     270/ 19/ 23 1016.0R
MILWAUKEE LAKESH 1600   19     290/ 19/ 25   N/A
S MID LAKE BUOY  1550   24 43  270/ 21/ 27 1016.4R   7/ 6
KENOSHA   LAKESH 1600   21     290/ 15/ 25 1016.6R
$$

TC  - TEMPERATURE IN CELSIUS
VSB - VISIBILITY IN STATUTE MILES
WCI - WIND CHILL INDEX
HX  - HEAT INDEX



USA.gov is the U.S. government's official web portal to all federal, state and local government web resources and services.